User: anonymous   Login
Location: Unspecified
(0.0000°N, 0.0000°E)
Time: 03:11:47
(UTC+00:00)
Language:

PROBA 2 - Orbit

View from above orbital plane
View from above orbital plane
View from above satellite
View from above satellite

Ground track
Ground track

The orbit data is extracted from the following two-line orbital elements,

1 36037U 09059B   16274.52898406  .00000061  00000-0  25698-4 0  9995
2 36037  98.2604 105.9662 0014463  58.6181 301.6428 14.52966018366423
Epoch (UTC): 30 September 2016 12:41:44
Eccentricity: 0.0014463
inclination: 98.2604°
perigee height: 706 km
apogee height: 726 km
right ascension of ascending node: 105.9662°
argument of perigee: 58.6181°
revolutions per day: 14.52966018
mean anomaly at epoch: 301.6428°
orbit number at epoch: 36642

The dashed part of the orbit path shows where the satellite is in the earth's shadow,  

DLR